Weather Roundup
Issued by NWS Chicago, IL

Home | Current Version | Previous Version | Text Only | Print | Product List | Glossary Off
Versions: 1 2 3 4 5 6 7 8 9 10 11 12 13 14 15 16 17 18 19 20 21 22 23 24 25 26 27 28 29 30 31 32 33 34 35 36 37 38 39 40 41 42 43 44 45 46 47 48 49 50

000
NZUS59 KLOT 221904
HRRLOT

CHICAGO AREA WEATHER ROUNDUP
NATIONAL WEATHER SERVICE CHICAGO/ROMEOVILLE IL
100 PM CST MON JAN 22 2018

NOTE: "FAIR" INDICATES FEW OR NO CLOUDS BELOW 12,000 FEET WITH NO
SIGNIFICANT WEATHER AND/OR OBSTRUCTIONS TO VISIBILITY.

* THESE STATIONS ARE NOT UNDER NWS QUALITY CONTROL. THEY ALSO MAY NOT
  REPORT WEATHER SUCH AS PRECIPITATION OR FOG.

ILZ005-006-012>014-019>023-222000-
NORTHEAST ILLINOIS

CITY           SKY/WX    TMP DP  RH WIND       PRES   REMARKS
OHARE          DRIZZLE   51  49  92 S15       29.47F FOG
MIDWAY         LGT RAIN  52  51  97 S17G28    29.48F FOG
AURORA         CLOUDY    50  50 100 S14       29.46F FOG
LANSING*       LGT RAIN  51  51  99 S24G33    29.52F
JOLIET*        CLOUDY    53  52  97 S15G25    29.48F
WAUKEGAN       CLOUDY    51  50  96 S14       29.46F
DUPAGE AIRPORT CLOUDY    50  50 100 S18G25    29.46F FOG
WHEELING       CLOUDY    52  51  97 S16G25    29.48F
KANKAKEE*      CLOUDY   N/A N/A N/A S18G25    29.52F
MORRIS*        CLOUDY    52  51  95 S15       29.46F
NORTHERLY ISL    N/A     51  48  89 S15         N/A
$$

WIZ051-052-058>065-066-070>072-222000-
SOUTHEAST WISCONSIN

CITY           SKY/WX    TMP DP  RH WIND       PRES   REMARKS
MILWAUKEE      DRZL/FOG  41  40  96 CALM      29.47F VSB 3/4
KENOSHA*       CLOUDY    50  48  93 S12G20    29.45F FOG
RACINE*        CLOUDY    45  44  97 S9        29.47F FOG
BURLINGTON     FOG       41  40  97 CALM      29.45F VSB 3/4
WAUKESHA       FOG       36  36 100 NE5       29.48F VSB 3/4
$$

INZ001>003-010>013-019-020-222000-
NORTHWEST INDIANA

CITY           SKY/WX    TMP DP  RH WIND       PRES   REMARKS
GARY*          DRIZZLE   54  50  87 S14G28    29.52F
MICHIGAN CITY* NOT AVBL
RENSSELAER*    NOT AVBL
VALPARAISO     CLOUDY    54  50  86 S21G29    29.54F
$$

LMZ740>746-222000-
SOUTHERN LAKE MICHIGAN

STATION/POSITION TIME  SKY/WX   TEMP WIND        PRES    VSBY
                                AIR  DIR/SP/G
                 (UTC)          (F)  (DEG/KT/KT) (MB)    (MI)
HARRISON CRIB    1840            49  190/ 24/ 25   N/A
BURNHAM HARBOR   1900            51  180/ 12/ 21   N/A
CALUMET HARBOR   1830            51  180/ 14/ 22  999.2F
BURNS HARBOR     1840            53  190/ 16/ 23 1000.7F
MICHIGAN CITY    1840            53  170/ 19/ 23   N/A
$$

ABBREVIATIONS USED IN REMARKS
   TC - TEMPERATURE IN CELSIUS
  WCI - WIND CHILL INDEX
   HX - HEAT INDEX
  VSB - VISIBILITY
$$



USA.gov is the U.S. government's official web portal to all federal, state and local government web resources and services.